This is the latest recevied weather packets stored in our database for station/object NB9X. If no packets are shown the sender has not sent any weather packets the latest 10 day(s).
| Time | Temp. | Humidity | Pressure | Rain* | Wind** | Luminosity | Snow |
|---|---|---|---|---|---|---|---|
| 1778270584 | 32.78° C | 100% | 1012 hPa | 0 mm | - | - | - |
| 1778270284 | 31.67° C | 100% | 1012 hPa | 0 mm | - | - | - |
| 1778269984 | 32.22° C | 100% | 1012.1 hPa | 0 mm | - | - | - |
| 1778269783 | 33.33° C | 100% | 1012 hPa | 0 mm | - | - | - |
| 1778269684 | 33.33° C | 100% | 1012 hPa | 0 mm | - | - | - |
| 1778269489 | 32.78° C | 100% | 1012.1 hPa | 0 mm | - | - | - |
| 1778269384 | 32.78° C | 100% | 1012.1 hPa | 0 mm | - | - | - |
| 1778269084 | 32.78° C | 100% | 1012.2 hPa | 0 mm | - | - | - |
| 1778268889 | 32.78° C | 100% | 1012.2 hPa | 0 mm | - | - | - |
| 1778268784 | 32.78° C | 100% | 1012.2 hPa | 0 mm | - | - | - |
| 1778268594 | 32.22° C | 100% | 1012.1 hPa | 0 mm | - | - | - |
| 1778268484 | 32.22° C | 100% | 1012.1 hPa | 0 mm | - | - | - |
| 1778268184 | 32.78° C | 100% | 1012.3 hPa | 0 mm | - | - | - |
| 1778267884 | 32.78° C | 100% | 1012.3 hPa | 0 mm | - | - | - |
| 1778267584 | 32.22° C | 100% | 1012.5 hPa | 0 mm | - | - | - |
| 1778267284 | 32.78° C | 100% | 1012.7 hPa | 0 mm | - | - | - |
| 1778266984 | 32.22° C | 100% | 1012.7 hPa | 0 mm | - | - | - |
| 1778266684 | 32.22° C | 100% | 1012.9 hPa | 0 mm | - | - | - |
| 1778266384 | 32.22° C | 100% | 1012.9 hPa | 0 mm | - | - | - |
| 1778266135 | 31.67° C | 100% | 1013.2 hPa | 0 mm | - | - | - |
| 1778266084 | 32.78° C | 100% | 1013 hPa | 0 mm | - | - | - |
| 1778265784 | 31.67° C | 100% | 1013 hPa | 0 mm | - | - | - |
| 1778265484 | 32.78° C | 100% | 1013.1 hPa | 0 mm | - | - | - |
| 1778265184 | 31.67° C | 100% | 1013.2 hPa | 0 mm | - | - | - |
| 1778265063 | 32.22° C | 100% | 1013.4 hPa | 0 mm | - | - | - |
* Rain latest hour (hover to see other rain measurements)
** Current wind speed in m/s (hover to see current wind gust speed)